Time,TemperatureF,DewpointF,PressureIn,WindDirection,WindDirectionDegrees,WindSpeedMPH,WindSpeedGustMPH,Humidity,HourlyPrecipIn,Conditions,Clouds,dailyrainin,SolarRadiationWatts/m^2,SoftwareType,DateUTC
2013-01-10 00:02:00,35.6,34.0,29.96,SSE,152,4.0,5.0,94,0.00,RA,,0.00,0.0,WeatherDisplay:10.37,2013-01-10 08:02:00,
2013-01-10 00:07:00,35.7,34.1,29.96,South,183,2.6,3.5,94,0.00,RA,,0.00,0.0,WeatherDisplay:10.37,2013-01-10 08:07:00,
2013-01-10 00:12:00,35.8,34.2,29.96,SSE,166,2.6,4.6,94,0.00,CLR,,0.00,0.0,WeatherDisplay:10.37,2013-01-10 08:12:00,
2013-01-10 00:17:00,35.8,34.2,29.96,SSE,159,1.8,2.3,94,0.00,CLR,,0.00,0.0,WeatherDisplay:10.37,2013-01-10 08:17:00,
2013-01-10 00:22:00,35.7,34.1,29.96,SSE,147,2.4,3.5,94,0.00,CLR,,0.00,0.0,WeatherDisplay:10.37,2013-01-10 08:22:00,
2013-01-10 00:27:00,35.6,34.0,29.96,SE,124,1.9,3.5,94,0.00,CLR,,0.00,0.0,WeatherDisplay:10.37,2013-01-10 08:27:00,
2013-01-10 00:32:00,35.5,33.9,29.96,SE,124,0.3,2.3,94,0.00,CLR,,0.00,0.0,WeatherDisplay:10.37,2013-01-10 08:32:00,
2013-01-10 00:37:00,35.4,33.8,29.96,SE,124,0.4,1.1,94,0.00,CLR,,0.00,0.0,WeatherDisplay:10.37,2013-01-10 08:37:00,
2013-01-10 00:42:00,35.3,33.7,29.97,SE,143,1.6,2.3,94,0.00,CLR,,0.00,0.0,WeatherDisplay:10.37,2013-01-10 08:42:00,
2013-01-10 00:47:00,35.3,33.7,29.96,SSE,166,1.9,3.5,94,0.00,CLR,,0.00,0.0,WeatherDisplay:10.37,2013-01-10 08:47:00,
2013-01-10 00:52:00,35.3,33.7,29.97,South,183,2.4,3.5,94,0.00,CLR,,0.00,0.0,WeatherDisplay:10.37,2013-01-10 08:52:00,
2013-01-10 00:57:00,35.3,33.7,29.96,South,183,2.6,3.5,94,0.00,CLR,,0.00,0.0,WeatherDisplay:10.37,2013-01-10 08:57:00,
2013-01-10 01:02:00,35.4,34.1,29.96,South,183,0.9,2.3,95,0.00,CLR,,0.00,0.0,WeatherDisplay:10.37,2013-01-10 09:02:00,
2013-01-10 01:07:00,35.4,33.8,29.96,South,183,1.9,3.5,94,0.00,CLR,,0.00,0.0,WeatherDisplay:10.37,2013-01-10 09:07:00,
2013-01-10 01:12:00,35.4,33.8,29.96,SSW,194,1.9,3.5,94,0.00,CLR,,0.00,0.0,WeatherDisplay:10.37,2013-01-10 09:12:00,
2013-01-10 01:17:00,35.4,34.1,29.96,SW,220,2.7,3.5,95,0.00,CLR,,0.00,0.0,WeatherDisplay:10.37,2013-01-10 09:17:00,
2013-01-10 01:22:00,35.5,34.2,29.97,SSW,212,4.0,5.0,95,0.00,CLR,,0.00,0.0,WeatherDisplay:10.37,2013-01-10 09:22:00,
2013-01-10 01:27:00,35.6,34.3,29.97,SSW,206,3.1,3.5,95,0.00,CLR,,0.00,0.0,WeatherDisplay:10.37,2013-01-10 09:27:00,
2013-01-10 01:32:00,35.6,34.3,29.97,SSE,149,3.9,5.0,95,0.01,RA,,0.01,0.0,WeatherDisplay:10.37,2013-01-10 09:32:00,
2013-01-10 01:37:00,35.7,34.4,29.97,South,178,1.6,3.5,95,0.01,RA,,0.01,0.0,WeatherDisplay:10.37,2013-01-10 09:37:00,
2013-01-10 01:42:00,35.7,34.4,29.97,SSE,164,3.2,3.5,95,0.02,RA,,0.02,0.0,WeatherDisplay:10.37,2013-01-10 09:42:00,
2013-01-10 01:47:00,35.8,34.5,29.97,SSE,160,2.3,3.5,95,0.02,RA,,0.02,0.0,WeatherDisplay:10.37,2013-01-10 09:47:00,
2013-01-10 01:52:00,35.9,34.6,29.97,SSE,154,3.8,4.0,95,0.02,CLR,,0.02,0.0,WeatherDisplay:10.37,2013-01-10 09:52:00,
2013-01-10 01:57:00,36.0,34.7,29.97,SSE,151,5.1,5.8,95,0.03,RA,,0.03,0.0,WeatherDisplay:10.37,2013-01-10 09:57:00,
2013-01-10 02:02:00,36.0,34.7,29.97,SSE,150,4.6,6.9,95,0.03,RA,,0.03,0.0,WeatherDisplay:10.37,2013-01-10 10:02:00,
2013-01-10 02:07:00,36.0,34.7,29.98,SSE,163,4.4,4.6,95,0.03,CLR,,0.03,0.0,WeatherDisplay:10.37,2013-01-10 10:07:00,
2013-01-10 02:13:00,36.1,34.8,29.98,SSE,158,4.3,5.8,95,0.03,CLR,,0.03,0.0,WeatherDisplay:10.37,2013-01-10 10:13:00,
2013-01-10 02:18:00,36.1,34.8,29.97,SSE,157,5.5,6.0,95,0.04,RA,,0.04,0.0,WeatherDisplay:10.37,2013-01-10 10:18:00,
2013-01-10 02:23:00,36.1,34.8,29.97,SSE,154,4.3,4.3,95,0.04,RA,,0.04,0.0,WeatherDisplay:10.37,2013-01-10 10:23:00,
2013-01-10 02:28:00,36.2,34.9,29.97,SSE,157,2.9,3.5,95,0.05,RA,,0.05,0.0,WeatherDisplay:10.37,2013-01-10 10:28:00,
2013-01-10 02:33:00,36.2,34.9,29.98,SSE,157,2.2,3.5,95,0.05,RA,,0.06,0.0,WeatherDisplay:10.37,2013-01-10 10:33:00,
2013-01-10 02:38:00,36.3,35.0,29.98,SSE,157,1.8,3.5,95,0.05,RA,,0.06,0.0,WeatherDisplay:10.37,2013-01-10 10:38:00,
2013-01-10 02:43:00,36.3,35.0,29.97,SSE,157,0.7,1.1,95,0.04,,,0.06,0.0,WeatherDisplay:10.37,2013-01-10 10:43:00,
2013-01-10 02:48:00,36.3,35.0,29.98,SSE,157,1.1,2.3,95,0.05,RA,,0.07,0.0,WeatherDisplay:10.37,2013-01-10 10:48:00,
2013-01-10 02:53:00,36.3,35.0,29.98,SSE,157,1.8,3.5,95,0.05,RA,,0.07,0.0,WeatherDisplay:10.37,2013-01-10 10:53:00,
2013-01-10 02:58:00,36.3,35.0,29.98,SSE,154,5.2,6.9,95,0.04,,,0.07,0.0,WeatherDisplay:10.37,2013-01-10 10:58:00,
2013-01-10 03:03:00,36.4,35.1,29.98,SSE,161,4.3,5.8,95,0.04,CLR,,0.07,0.0,WeatherDisplay:10.37,2013-01-10 11:03:00,
2013-01-10 03:08:00,36.4,35.1,29.98,South,173,3.7,5.8,95,0.04,CLR,,0.07,0.0,WeatherDisplay:10.37,2013-01-10 11:08:00,
2013-01-10 03:13:00,36.3,35.0,29.98,SSE,160,3.5,5.8,95,0.04,CLR,,0.07,0.0,WeatherDisplay:10.37,2013-01-10 11:13:00,
2013-01-10 03:18:00,36.3,35.0,29.98,SE,145,3.5,3.5,95,0.04,RA,,0.08,0.0,WeatherDisplay:10.37,2013-01-10 11:18:00,
2013-01-10 03:23:00,36.3,35.0,29.97,SSE,163,7.2,9.2,95,0.04,RA,,0.08,0.0,WeatherDisplay:10.37,2013-01-10 11:23:00,
2013-01-10 03:28:00,36.3,35.0,29.97,SE,145,6.1,8.1,95,0.04,RA,,0.09,0.0,WeatherDisplay:10.37,2013-01-10 11:28:00,
2013-01-10 03:33:00,36.3,35.0,29.97,SE,142,5.0,9.2,95,0.04,RA,,0.10,0.0,WeatherDisplay:10.37,2013-01-10 11:33:00,
2013-01-10 03:38:00,36.3,35.0,29.97,SSE,160,6.5,9.2,95,0.04,RA,,0.10,0.0,WeatherDisplay:10.37,2013-01-10 11:38:00,
2013-01-10 03:43:00,36.3,35.0,29.97,South,173,5.3,9.2,95,0.04,CLR,,0.10,0.0,WeatherDisplay:10.37,2013-01-10 11:43:00,
2013-01-10 03:48:00,36.4,35.1,29.97,SSE,154,7.5,10.4,95,0.04,RA,,0.12,0.0,WeatherDisplay:10.37,2013-01-10 11:48:00,
2013-01-10 03:53:00,36.2,34.9,29.97,SE,133,7.9,10.4,95,0.05,RA,,0.12,0.0,WeatherDisplay:10.37,2013-01-10 11:53:00,
2013-01-10 03:58:00,36.1,34.8,29.97,SE,138,8.0,9.2,95,0.06,RA,,0.13,0.0,WeatherDisplay:10.37,2013-01-10 11:58:00,
2013-01-10 04:03:00,36.0,34.7,29.97,SE,146,5.2,5.8,95,0.06,RA,,0.13,0.0,WeatherDisplay:10.37,2013-01-10 12:03:00,
2013-01-10 04:08:00,35.9,34.6,29.97,SSE,156,7.4,11.5,95,0.06,CLR,,0.13,0.0,WeatherDisplay:10.37,2013-01-10 12:08:00,
2013-01-10 04:13:00,35.9,34.6,29.96,SE,143,6.6,8.1,95,0.06,CLR,,0.13,0.0,WeatherDisplay:10.37,2013-01-10 12:13:00,
2013-01-10 04:18:00,35.8,34.5,29.96,SE,129,6.3,9.2,95,0.05,CLR,,0.13,0.0,WeatherDisplay:10.37,2013-01-10 12:18:00,
2013-01-10 04:23:00,35.6,34.3,29.96,SE,142,7.1,9.2,95,0.05,CLR,,0.13,0.0,WeatherDisplay:10.37,2013-01-10 12:23:00,
2013-01-10 04:28:00,35.5,34.2,29.97,SE,133,4.4,5.0,95,0.04,CLR,,0.13,0.0,WeatherDisplay:10.37,2013-01-10 12:28:00,
2013-01-10 04:33:00,35.5,34.2,29.97,SE,139,1.3,2.3,95,0.03,CLR,,0.13,0.0,WeatherDisplay:10.37,2013-01-10 12:33:00,
2013-01-10 04:38:00,35.4,34.1,29.97,SE,143,3.0,3.5,95,0.03,CLR,,0.13,0.0,WeatherDisplay:10.37,2013-01-10 12:38:00,
2013-01-10 04:43:00,35.3,34.0,29.97,SE,137,1.4,3.5,95,0.03,CLR,,0.13,0.0,WeatherDisplay:10.37,2013-01-10 12:43:00,
2013-01-10 04:48:00,35.3,34.0,29.97,SE,131,2.4,3.5,95,0.02,CLR,,0.13,0.0,WeatherDisplay:10.37,2013-01-10 12:48:00,
2013-01-10 04:53:00,35.2,33.9,29.97,SE,133,1.8,3.5,95,0.01,CLR,,0.13,0.0,WeatherDisplay:10.37,2013-01-10 12:53:00,
2013-01-10 04:58:00,35.1,33.8,29.97,SE,136,2.3,3.5,95,0.00,CLR,,0.13,0.0,WeatherDisplay:10.37,2013-01-10 12:58:00,
2013-01-10 05:03:00,35.1,33.8,29.97,SE,139,4.8,5.8,95,0.00,CLR,,0.13,0.0,WeatherDisplay:10.37,2013-01-10 13:03:00,
2013-01-10 05:08:00,35.1,33.8,29.97,SE,145,4.7,5.8,95,0.00,CLR,,0.13,0.0,WeatherDisplay:10.37,2013-01-10 13:08:00,
2013-01-10 05:13:00,35.2,33.9,29.97,SSE,166,4.8,5.8,95,0.00,CLR,,0.13,0.0,WeatherDisplay:10.37,2013-01-10 13:13:00,
2013-01-10 05:18:00,35.3,34.0,29.97,SSE,154,4.8,9.2,95,0.00,CLR,,0.13,0.0,WeatherDisplay:10.37,2013-01-10 13:18:00,
2013-01-10 05:23:00,35.3,34.0,29.97,South,178,4.0,4.6,95,0.00,CLR,,0.13,0.0,WeatherDisplay:10.37,2013-01-10 13:23:00,
2013-01-10 05:28:00,35.2,33.9,29.98,SSE,162,2.6,3.5,95,0.00,CLR,,0.13,0.0,WeatherDisplay:10.37,2013-01-10 13:28:00,
2013-01-10 05:33:00,35.1,33.8,29.98,SSE,160,0.0,1.1,95,0.00,CLR,,0.13,0.0,WeatherDisplay:10.37,2013-01-10 13:33:00,
2013-01-10 05:38:00,35.0,33.7,29.98,SSE,160,0.3,2.0,95,0.00,CLR,,0.13,0.0,WeatherDisplay:10.37,2013-01-10 13:38:00,
2013-01-10 05:43:00,34.8,33.5,29.98,SSE,160,1.8,3.5,95,0.00,CLR,,0.13,0.0,WeatherDisplay:10.37,2013-01-10 13:43:00,
2013-01-10 05:48:00,34.7,33.4,29.98,SSE,160,0.0,0.0,95,0.00,CLR,,0.13,0.0,WeatherDisplay:10.37,2013-01-10 13:48:00,
2013-01-10 05:53:00,34.7,33.4,29.98,SSE,160,0.7,2.3,95,0.00,CLR,,0.13,0.0,WeatherDisplay:10.37,2013-01-10 13:53:00,
2013-01-10 05:58:00,34.8,33.8,29.98,SE,142,2.3,3.5,96,0.00,CLR,,0.13,0.0,WeatherDisplay:10.37,2013-01-10 13:58:00,
2013-01-10 06:03:00,34.9,33.6,29.98,SE,142,0.4,1.1,95,0.00,CLR,,0.13,0.0,WeatherDisplay:10.37,2013-01-10 14:03:00,
2013-01-10 06:08:00,34.9,33.6,29.98,SSE,166,0.8,1.1,95,0.00,CLR,,0.13,0.0,WeatherDisplay:10.37,2013-01-10 14:08:00,
2013-01-10 06:13:00,34.9,33.6,29.98,South,173,1.8,3.5,95,0.00,CLR,,0.13,0.0,WeatherDisplay:10.37,2013-01-10 14:13:00,
2013-01-10 06:19:00,34.8,33.5,29.99,South,173,1.4,3.5,95,0.00,CLR,,0.13,0.0,WeatherDisplay:10.37,2013-01-10 14:19:00,
2013-01-10 06:24:00,34.8,33.5,29.99,South,173,1.5,3.5,95,0.00,CLR,,0.13,0.0,WeatherDisplay:10.37,2013-01-10 14:24:00,
2013-01-10 06:29:00,34.8,33.5,29.99,South,173,1.6,2.3,95,0.00,CLR,,0.13,0.0,WeatherDisplay:10.37,2013-01-10 14:29:00,
2013-01-10 06:34:00,34.6,33.3,30.00,South,173,1.3,2.3,95,0.00,CLR,,0.13,0.0,WeatherDisplay:10.37,2013-01-10 14:34:00,
2013-01-10 06:39:00,34.6,33.3,30.00,South,173,1.5,2.3,95,0.00,CLR,,0.13,0.0,WeatherDisplay:10.37,2013-01-10 14:39:00,
2013-01-10 06:44:00,34.6,33.3,30.00,South,173,0.4,1.1,95,0.00,CLR,,0.13,0.0,WeatherDisplay:10.37,2013-01-10 14:44:00,
2013-01-10 06:49:00,34.4,33.1,30.00,South,173,0.0,0.0,95,0.00,CLR,,0.13,0.0,WeatherDisplay:10.37,2013-01-10 14:49:00,
2013-01-10 06:54:00,34.2,32.9,30.01,South,173,0.6,1.1,95,0.00,CLR,,0.13,0.0,WeatherDisplay:10.37,2013-01-10 14:54:00,
2013-01-10 06:59:00,33.9,32.4,30.01,South,173,1.2,2.3,94,0.00,CLR,,0.13,0.0,WeatherDisplay:10.37,2013-01-10 14:59:00,
2013-01-10 07:04:00,33.7,32.4,30.01,South,173,0.0,0.0,95,0.00,CLR,,0.13,0.0,WeatherDisplay:10.37,2013-01-10 15:04:00,
2013-01-10 07:09:00,33.6,32.3,30.02,South,173,0.0,0.0,95,0.00,CLR,,0.13,0.0,WeatherDisplay:10.37,2013-01-10 15:09:00,
2013-01-10 07:14:00,33.5,32.2,30.02,South,173,0.2,1.1,95,0.00,CLR,,0.13,0.0,WeatherDisplay:10.37,2013-01-10 15:14:00,
2013-01-10 07:19:00,33.5,32.2,30.02,South,173,0.8,2.3,95,0.00,CLR,,0.13,0.0,WeatherDisplay:10.37,2013-01-10 15:19:00,
2013-01-10 07:24:00,33.5,32.2,30.02,South,173,1.7,2.3,95,0.00,CLR,,0.13,0.0,WeatherDisplay:10.37,2013-01-10 15:24:00,
2013-01-10 07:29:00,33.5,32.2,30.02,SE,140,2.1,3.5,95,0.00,CLR,,0.13,0.0,WeatherDisplay:10.37,2013-01-10 15:29:00,
2013-01-10 07:34:00,33.6,32.6,30.02,SE,140,0.0,0.0,96,0.00,CLR,,0.13,0.0,WeatherDisplay:10.37,2013-01-10 15:34:00,
2013-01-10 07:39:00,33.7,32.7,30.02,SE,140,1.2,2.3,96,0.00,CLR,,0.13,0.0,WeatherDisplay:10.37,2013-01-10 15:39:00,
2013-01-10 07:44:00,33.9,32.9,30.03,East,99,2.0,3.5,96,0.00,CLR,,0.13,0.0,WeatherDisplay:10.37,2013-01-10 15:44:00,
2013-01-10 07:49:00,34.0,33.0,30.03,East,99,0.5,1.1,96,0.00,CLR,,0.13,0.0,WeatherDisplay:10.37,2013-01-10 15:49:00,
2013-01-10 07:54:00,34.2,33.2,30.03,East,98,0.8,2.3,96,0.00,CLR,,0.13,0.0,WeatherDisplay:10.37,2013-01-10 15:54:00,
2013-01-10 07:59:00,34.3,33.3,30.03,East,86,2.1,3.5,96,0.00,CLR,,0.13,0.0,WeatherDisplay:10.37,2013-01-10 15:59:00,
2013-01-10 08:04:00,34.4,33.4,30.04,East,86,1.9,3.5,96,0.00,CLR,,0.13,0.0,WeatherDisplay:10.37,2013-01-10 16:04:00,
2013-01-10 08:09:00,34.6,33.6,30.04,East,81,0.0,1.1,96,0.00,OVC,,0.13,5.0,WeatherDisplay:10.37,2013-01-10 16:09:00,
2013-01-10 08:14:00,34.8,33.8,30.04,East,81,2.6,4.6,96,0.00,OVC,,0.13,7.0,WeatherDisplay:10.37,2013-01-10 16:14:00,
2013-01-10 08:19:00,34.9,33.9,30.04,East,81,0.8,2.3,96,0.00,OVC,,0.13,9.0,WeatherDisplay:10.37,2013-01-10 16:19:00,
2013-01-10 08:24:00,35.1,34.1,30.05,ENE,66,1.6,3.5,96,0.00,OVC,,0.13,12.0,WeatherDisplay:10.37,2013-01-10 16:24:00,
2013-01-10 08:29:00,35.2,34.2,30.05,ENE,66,0.0,1.0,96,0.00,OVC,,0.13,16.0,WeatherDisplay:10.37,2013-01-10 16:29:00,
2013-01-10 08:34:00,35.4,34.4,30.05,ENE,66,0.8,2.3,96,0.00,OVC,,0.13,21.0,WeatherDisplay:10.37,2013-01-10 16:34:00,
2013-01-10 08:39:00,35.4,34.4,30.05,ENE,66,0.0,0.0,96,0.00,OVC,,0.13,26.0,WeatherDisplay:10.37,2013-01-10 16:39:00,
2013-01-10 08:44:00,35.5,34.5,30.05,ENE,66,0.0,0.0,96,0.00,OVC,,0.13,26.0,WeatherDisplay:10.37,2013-01-10 16:44:00,
2013-01-10 08:49:00,35.6,34.6,30.05,ENE,66,0.0,0.0,96,0.00,OVC,,0.13,30.0,WeatherDisplay:10.37,2013-01-10 16:49:00,
2013-01-10 08:54:00,35.6,34.6,30.05,ENE,66,0.0,0.0,96,0.00,OVC,,0.13,42.0,WeatherDisplay:10.37,2013-01-10 16:54:00,
2013-01-10 08:59:00,35.8,34.8,30.06,East,79,0.1,1.1,96,0.00,OVC,,0.13,54.0,WeatherDisplay:10.37,2013-01-10 16:59:00,
2013-01-10 09:04:00,35.9,35.1,30.06,South,178,2.1,3.5,97,0.00,SCT,,0.13,63.0,WeatherDisplay:10.37,2013-01-10 17:04:00,
2013-01-10 09:09:00,36.1,35.3,30.06,South,178,0.1,1.1,97,0.00,CLR,,0.13,67.0,WeatherDisplay:10.37,2013-01-10 17:09:00,
2013-01-10 09:14:00,36.4,35.6,30.06,South,178,0.9,1.1,97,0.00,CLR,,0.13,70.0,WeatherDisplay:10.37,2013-01-10 17:14:00,
2013-01-10 09:19:00,36.5,35.7,30.06,South,178,0.0,0.0,97,0.00,CLR,,0.13,76.0,WeatherDisplay:10.37,2013-01-10 17:19:00,
2013-01-10 09:24:00,36.7,35.9,30.06,South,178,0.0,0.0,97,0.00,CLR,,0.13,54.0,WeatherDisplay:10.37,2013-01-10 17:24:00,
2013-01-10 09:29:00,36.8,36.0,30.06,WSW,239,1.9,3.0,97,0.00,CLR,,0.13,121.0,WeatherDisplay:10.37,2013-01-10 17:29:00,
2013-01-10 09:34:00,37.0,36.2,30.07,West,264,2.1,3.5,97,0.00,CLR,,0.13,97.0,WeatherDisplay:10.37,2013-01-10 17:34:00,
2013-01-10 09:39:00,37.1,36.3,30.07,West,264,0.0,0.0,97,0.00,CLR,,0.13,65.0,WeatherDisplay:10.37,2013-01-10 17:39:00,
2013-01-10 09:44:00,37.3,36.5,30.07,West,264,0.6,2.3,97,0.00,CLR,,0.13,153.0,WeatherDisplay:10.37,2013-01-10 17:44:00,
2013-01-10 09:49:00,37.4,36.6,30.07,West,264,0.0,0.0,97,0.00,CLR,,0.13,72.0,WeatherDisplay:10.37,2013-01-10 17:49:00,
2013-01-10 09:54:00,37.6,36.8,30.07,West,264,0.0,0.0,97,0.00,CLR,,0.13,179.0,WeatherDisplay:10.37,2013-01-10 17:54:00,
2013-01-10 09:59:00,37.9,37.1,30.07,West,264,0.0,0.0,97,0.00,CLR,,0.13,195.0,WeatherDisplay:10.37,2013-01-10 17:59:00,
2013-01-10 10:04:00,38.2,37.4,30.07,West,264,0.0,1.0,97,0.00,CLR,,0.13,220.0,WeatherDisplay:10.37,2013-01-10 18:04:00,
2013-01-10 10:09:00,38.5,37.7,30.07,West,264,0.0,0.0,97,0.00,CLR,,0.13,234.0,WeatherDisplay:10.37,2013-01-10 18:09:00,
2013-01-10 10:14:00,38.8,38.0,30.08,West,264,0.0,1.1,97,0.00,CLR,,0.13,299.0,WeatherDisplay:10.37,2013-01-10 18:14:00,
2013-01-10 10:19:00,39.2,38.4,30.08,West,264,0.0,0.0,97,0.00,CLR,,0.13,174.0,WeatherDisplay:10.37,2013-01-10 18:19:00,
2013-01-10 10:24:00,39.4,38.6,30.08,West,264,0.0,0.0,97,0.00,CLR,,0.13,120.0,WeatherDisplay:10.37,2013-01-10 18:24:00,
2013-01-10 10:29:00,39.5,38.7,30.08,West,264,0.0,0.0,97,0.00,CLR,,0.13,162.0,WeatherDisplay:10.37,2013-01-10 18:29:00,
2013-01-10 10:34:00,39.8,38.8,30.08,West,264,0.0,0.0,96,0.00,CLR,,0.13,128.0,WeatherDisplay:10.37,2013-01-10 18:34:00,
2013-01-10 10:39:00,40.0,39.2,30.08,West,264,0.0,0.0,97,0.00,CLR,,0.13,237.0,WeatherDisplay:10.37,2013-01-10 18:39:00,
2013-01-10 10:44:00,40.2,39.2,30.08,West,264,0.0,0.0,96,0.00,CLR,,0.13,207.0,WeatherDisplay:10.37,2013-01-10 18:44:00,
2013-01-10 10:49:00,40.4,39.4,30.08,West,264,0.0,1.1,96,0.00,CLR,,0.13,250.0,WeatherDisplay:10.37,2013-01-10 18:49:00,
2013-01-10 10:54:00,40.7,39.6,30.08,West,264,0.1,1.1,96,0.00,CLR,,0.13,281.0,WeatherDisplay:10.37,2013-01-10 18:54:00,
2013-01-10 10:59:00,41.1,40.0,30.08,West,264,0.5,2.3,96,0.00,CLR,,0.13,292.0,WeatherDisplay:10.37,2013-01-10 18:59:00,
2013-01-10 11:04:00,41.4,40.3,30.08,West,264,0.4,2.3,96,0.00,CLR,,0.13,302.0,WeatherDisplay:10.37,2013-01-10 19:04:00,
2013-01-10 11:09:00,41.7,40.4,30.08,NE,52,3.6,4.6,95,0.00,CLR,,0.13,323.0,WeatherDisplay:10.37,2013-01-10 19:09:00,
2013-01-10 11:14:00,41.8,40.2,30.08,NE,52,1.2,2.3,94,0.00,CLR,,0.13,279.0,WeatherDisplay:10.37,2013-01-10 19:14:00,
2013-01-10 11:19:00,41.9,40.0,30.08,NE,52,1.8,2.3,93,0.00,CLR,,0.13,227.0,WeatherDisplay:10.37,2013-01-10 19:19:00,
2013-01-10 11:24:00,41.8,39.4,30.08,NE,37,2.9,3.5,91,0.00,CLR,,0.13,176.0,WeatherDisplay:10.37,2013-01-10 19:24:00,
2013-01-10 11:29:00,41.6,38.9,30.08,NW,316,1.5,2.3,90,0.00,FEW,,0.13,148.0,WeatherDisplay:10.37,2013-01-10 19:29:00,
2013-01-10 11:34:00,41.4,38.7,30.08,NNE,22,0.6,3.5,90,0.00,SCT,,0.13,350.0,WeatherDisplay:10.37,2013-01-10 19:34:00,
2013-01-10 11:39:00,41.4,38.4,30.08,NNE,23,2.3,3.5,89,0.00,CLR,,0.13,195.0,WeatherDisplay:10.37,2013-01-10 19:39:00,
2013-01-10 11:44:00,41.5,38.5,30.07,NNW,342,1.9,3.5,89,0.00,CLR,,0.13,385.0,WeatherDisplay:10.37,2013-01-10 19:44:00,
2013-01-10 11:49:00,41.5,37.9,30.07,WNW,295,0.0,0.0,87,0.00,CLR,,0.13,424.0,WeatherDisplay:10.37,2013-01-10 19:49:00,
2013-01-10 11:54:00,41.9,38.6,30.07,NE,39,2.7,3.5,88,0.00,CLR,,0.13,431.0,WeatherDisplay:10.37,2013-01-10 19:54:00,
2013-01-10 11:59:00,42.2,38.6,30.07,NNE,18,2.7,3.5,87,0.00,CLR,,0.13,188.0,WeatherDisplay:10.37,2013-01-10 19:59:00,
2013-01-10 12:04:00,42.3,38.4,30.07,NNE,18,1.3,2.3,86,0.00,FEW,,0.13,202.0,WeatherDisplay:10.37,2013-01-10 20:04:00,
2013-01-10 12:09:00,42.4,38.8,30.07,NNE,17,2.3,3.5,87,0.00,FEW,,0.13,230.0,WeatherDisplay:10.37,2013-01-10 20:09:00,
2013-01-10 12:14:00,42.6,38.7,30.07,ENE,63,5.4,5.8,86,0.00,FEW,,0.13,160.0,WeatherDisplay:10.37,2013-01-10 20:14:00,
2013-01-10 12:19:00,42.7,38.8,30.07,North,351,2.6,3.5,86,0.00,SCT,,0.13,142.0,WeatherDisplay:10.37,2013-01-10 20:19:00,
2013-01-10 12:24:00,42.6,38.7,30.07,NNE,29,3.2,4.6,86,0.00,SCT,,0.13,148.0,WeatherDisplay:10.37,2013-01-10 20:24:00,
2013-01-10 12:29:00,42.5,38.6,30.07,NNE,29,2.2,3.5,86,0.00,SCT,,0.13,236.0,WeatherDisplay:10.37,2013-01-10 20:29:00,
2013-01-10 12:34:00,42.7,39.1,30.07,NE,56,4.6,4.6,87,0.00,CLR,,0.13,230.0,WeatherDisplay:10.37,2013-01-10 20:34:00,
2013-01-10 12:39:00,42.9,38.7,30.07,NNE,29,4.4,5.8,85,0.00,CLR,,0.13,176.0,WeatherDisplay:10.37,2013-01-10 20:39:00,
2013-01-10 12:44:00,42.9,38.7,30.07,NE,44,3.9,4.6,85,0.00,SCT,,0.13,200.0,WeatherDisplay:10.37,2013-01-10 20:44:00,
2013-01-10 12:49:00,42.9,39.0,30.07,NE,56,4.4,5.8,86,0.00,SCT,,0.13,169.0,WeatherDisplay:10.37,2013-01-10 20:49:00,
2013-01-10 12:54:00,42.9,39.0,30.07,NE,47,4.1,5.8,86,0.00,SCT,,0.13,130.0,WeatherDisplay:10.37,2013-01-10 20:54:00,
2013-01-10 12:59:00,42.9,38.7,30.08,NE,37,2.4,3.5,85,0.00,BKN,,0.13,155.0,WeatherDisplay:10.37,2013-01-10 20:59:00,
2013-01-10 13:04:00,42.7,38.5,30.08,North,4,3.2,3.5,85,0.00,BKN,,0.13,167.0,WeatherDisplay:10.37,2013-01-10 21:04:00,
2013-01-10 13:09:00,42.5,38.3,30.08,NNE,30,4.0,4.6,85,0.00,BKN,,0.13,171.0,WeatherDisplay:10.37,2013-01-10 21:09:00,
2013-01-10 13:14:00,42.5,38.3,30.08,NNE,14,1.7,3.5,85,0.00,BKN,,0.13,155.0,WeatherDisplay:10.37,2013-01-10 21:14:00,
2013-01-10 13:19:00,42.4,38.2,30.08,NNW,347,0.8,2.3,85,0.00,BKN,,0.13,109.0,WeatherDisplay:10.37,2013-01-10 21:19:00,
2013-01-10 13:24:00,42.2,38.0,30.08,NNW,336,1.8,3.5,85,0.00,BKN,,0.13,141.0,WeatherDisplay:10.37,2013-01-10 21:24:00,
2013-01-10 13:29:00,42.2,38.0,30.08,North,353,3.1,4.6,85,0.00,BKN,,0.13,178.0,WeatherDisplay:10.37,2013-01-10 21:29:00,
2013-01-10 13:34:00,42.2,38.3,30.08,NW,305,2.9,3.5,86,0.00,SCT,,0.13,206.0,WeatherDisplay:10.37,2013-01-10 21:34:00,
2013-01-10 13:39:00,42.2,38.6,30.08,NNW,332,2.5,6.9,87,0.00,SCT,,0.13,253.0,WeatherDisplay:10.37,2013-01-10 21:39:00,
2013-01-10 13:44:00,42.4,38.8,30.08,North,357,4.4,6.0,87,0.00,FEW,,0.13,279.0,WeatherDisplay:10.37,2013-01-10 21:44:00,
2013-01-10 13:49:00,42.7,39.1,30.08,NNE,32,5.0,5.8,87,0.00,FEW,,0.13,209.0,WeatherDisplay:10.37,2013-01-10 21:49:00,
2013-01-10 13:54:00,42.9,39.0,30.08,NE,37,4.1,5.8,86,0.00,FEW,,0.13,130.0,WeatherDisplay:10.37,2013-01-10 21:54:00,
2013-01-10 13:59:00,42.9,38.7,30.08,NW,324,2.9,3.5,85,0.00,SCT,,0.13,111.0,WeatherDisplay:10.37,2013-01-10 21:59:00,
2013-01-10 14:04:00,42.8,38.6,30.08,NNW,333,0.4,3.5,85,0.00,BKN,,0.13,399.0,WeatherDisplay:10.37,2013-01-10 22:04:00,
2013-01-10 14:09:00,43.1,39.2,30.08,NNE,27,2.5,3.5,86,0.00,FEW,,0.13,185.0,WeatherDisplay:10.37,2013-01-10 22:09:00,
2013-01-10 14:14:00,43.3,39.4,30.08,NW,314,2.9,4.6,86,0.00,CLR,,0.13,272.0,WeatherDisplay:10.37,2013-01-10 22:14:00,
2013-01-10 14:19:00,43.2,38.7,30.09,NW,314,4.5,4.6,84,0.00,CLR,,0.13,218.0,WeatherDisplay:10.37,2013-01-10 22:19:00,
2013-01-10 14:25:00,43.1,38.6,30.09,NW,317,6.0,9.0,84,0.00,CLR,,0.13,308.0,WeatherDisplay:10.37,2013-01-10 22:25:00,
2013-01-10 14:30:00,42.9,38.4,30.09,NW,305,5.0,10.0,84,0.00,FEW,,0.13,139.0,WeatherDisplay:10.37,2013-01-10 22:30:00,
2013-01-10 14:35:00,42.7,38.2,30.09,NW,317,3.0,9.0,84,0.00,SCT,,0.13,90.0,WeatherDisplay:10.37,2013-01-10 22:35:00,
2013-01-10 14:40:00,42.5,38.0,30.09,NW,325,3.0,9.0,84,0.00,BKN,,0.13,95.0,WeatherDisplay:10.37,2013-01-10 22:40:00,
2013-01-10 14:45:00,42.4,38.2,30.08,NW,325,3.0,6.0,85,0.00,BKN,,0.13,225.0,WeatherDisplay:10.37,2013-01-10 22:45:00,
2013-01-10 14:50:00,42.4,38.5,30.09,NW,323,2.0,5.0,86,0.00,SCT,,0.13,255.0,WeatherDisplay:10.37,2013-01-10 22:50:00,
2013-01-10 14:55:00,42.4,38.2,30.09,NW,320,2.0,5.0,85,0.00,FEW,,0.13,246.0,WeatherDisplay:10.37,2013-01-10 22:55:00,
2013-01-10 15:00:00,42.4,38.2,30.09,NW,323,5.0,6.0,85,0.00,FEW,,0.13,246.0,WeatherDisplay:10.37,2013-01-10 23:00:00,
2013-01-10 15:05:00,42.5,38.3,30.09,NW,306,3.0,3.5,85,0.00,FEW,,0.13,181.0,WeatherDisplay:10.37,2013-01-10 23:05:00,
2013-01-10 15:10:00,42.5,38.0,30.09,WNW,295,3.2,3.5,84,0.00,FEW,,0.13,167.0,WeatherDisplay:10.37,2013-01-10 23:10:00,
2013-01-10 15:15:00,42.5,38.3,30.09,NW,315,2.5,3.5,85,0.00,SCT,,0.13,151.0,WeatherDisplay:10.37,2013-01-10 23:15:00,
2013-01-10 15:20:00,42.4,37.9,30.09,NNW,327,5.0,6.9,84,0.00,SCT,,0.13,139.0,WeatherDisplay:10.37,2013-01-10 23:20:00,
2013-01-10 15:25:00,42.4,37.9,30.09,NNW,338,2.8,4.6,84,0.00,SCT,,0.13,130.0,WeatherDisplay:10.37,2013-01-10 23:25:00,
2013-01-10 15:30:00,42.4,37.9,30.09,WNW,298,3.6,4.6,84,0.00,SCT,,0.13,146.0,WeatherDisplay:10.37,2013-01-10 23:30:00,
2013-01-10 15:35:00,42.4,37.9,30.09,WNW,293,1.2,2.3,84,0.00,SCT,,0.13,100.0,WeatherDisplay:10.37,2013-01-10 23:35:00,
2013-01-10 15:40:00,42.4,37.9,30.09,NW,313,1.9,3.5,84,0.00,BKN,,0.13,56.0,WeatherDisplay:10.37,2013-01-10 23:40:00,
2013-01-10 15:45:00,42.3,37.5,30.09,NW,325,3.1,4.6,83,0.00,BKN,,0.13,32.0,WeatherDisplay:10.37,2013-01-10 23:45:00,
2013-01-10 15:50:00,42.2,37.4,30.09,NNW,328,1.9,3.5,83,0.00,BKN,,0.13,32.0,WeatherDisplay:10.37,2013-01-10 23:50:00,
2013-01-10 15:55:00,42.1,37.3,30.09,NNW,328,0.0,0.0,83,0.00,BKN,,0.13,54.0,WeatherDisplay:10.37,2013-01-10 23:55:00,
2013-01-10 16:00:00,42.0,37.5,30.09,NNW,328,0.6,1.1,84,0.00,BKN,,0.13,21.0,WeatherDisplay:10.37,2013-01-11 00:00:00,
2013-01-10 16:05:00,41.9,37.7,30.09,NNW,328,0.0,0.0,85,0.00,BKN,,0.13,19.0,WeatherDisplay:10.37,2013-01-11 00:05:00,
2013-01-10 16:10:00,41.9,38.0,30.09,NNW,328,0.0,0.0,86,0.00,BKN,,0.13,14.0,WeatherDisplay:10.37,2013-01-11 00:10:00,
2013-01-10 16:15:00,41.8,37.9,30.09,NNW,328,0.0,0.0,86,0.00,BKN,,0.13,25.0,WeatherDisplay:10.37,2013-01-11 00:15:00,
2013-01-10 16:20:00,41.7,37.8,30.09,NNW,328,0.0,0.0,86,0.00,BKN,,0.13,16.0,WeatherDisplay:10.37,2013-01-11 00:20:00,
2013-01-10 16:25:00,41.5,37.6,30.09,NNW,328,0.0,0.0,86,0.00,BKN,,0.13,12.0,WeatherDisplay:10.37,2013-01-11 00:25:00,
2013-01-10 16:30:00,41.3,37.4,30.09,NNW,328,0.0,0.0,86,0.00,BKN,,0.13,12.0,WeatherDisplay:10.37,2013-01-11 00:30:00,
2013-01-10 16:35:00,41.1,37.2,30.09,NNW,328,0.0,0.0,86,0.00,BKN,,0.13,11.0,WeatherDisplay:10.37,2013-01-11 00:35:00,
2013-01-10 16:40:00,40.9,37.0,30.09,NNW,328,0.0,0.0,86,0.00,BKN,,0.13,9.0,WeatherDisplay:10.37,2013-01-11 00:40:00,
2013-01-10 16:45:00,40.6,36.7,30.09,NNW,328,0.0,0.0,86,0.00,BKN,,0.13,7.0,WeatherDisplay:10.37,2013-01-11 00:45:00,
2013-01-10 16:50:00,40.3,36.4,30.09,NNW,328,0.0,0.0,86,0.00,BKN,,0.13,5.0,WeatherDisplay:10.37,2013-01-11 00:50:00,
2013-01-10 16:55:00,39.8,36.2,30.09,NNW,328,0.0,0.0,87,0.00,BKN,,0.13,0.0,WeatherDisplay:10.37,2013-01-11 00:55:00,
2013-01-10 17:00:00,39.4,36.1,30.09,NNW,328,1.5,3.5,88,0.00,BKN,,0.13,0.0,WeatherDisplay:10.37,2013-01-11 01:00:00,
2013-01-10 17:05:00,39.1,36.1,30.08,NNW,328,0.0,0.0,89,0.00,BKN,,0.13,0.0,WeatherDisplay:10.37,2013-01-11 01:05:00,
2013-01-10 17:10:00,38.8,35.6,30.08,NNW,328,0.4,0.0,88,0.00,BKN,,0.13,0.0,WeatherDisplay:10.37,2013-01-11 01:10:00,
2013-01-10 17:15:00,38.5,35.5,30.08,NNW,328,0.0,0.0,89,0.00,BKN,,0.13,0.0,WeatherDisplay:10.37,2013-01-11 01:15:00,
2013-01-10 17:20:00,38.2,35.2,30.08,NNW,328,0.0,0.0,89,0.00,BKN,,0.13,0.0,WeatherDisplay:10.37,2013-01-11 01:20:00,
2013-01-10 17:25:00,37.9,34.9,30.08,NNW,328,0.0,0.0,89,0.00,BKN,,0.13,0.0,WeatherDisplay:10.37,2013-01-11 01:25:00,
2013-01-10 17:30:00,37.7,34.8,30.08,NNW,328,0.0,0.0,89,0.00,BKN,,0.13,0.0,WeatherDisplay:10.37,2013-01-11 01:30:00,
2013-01-10 17:35:00,37.5,34.6,30.08,NNW,328,1.0,2.3,89,0.00,BKN,,0.13,0.0,WeatherDisplay:10.37,2013-01-11 01:35:00,
2013-01-10 17:40:00,37.3,34.4,30.08,NNW,328,0.0,0.0,89,0.00,BKN,,0.13,0.0,WeatherDisplay:10.37,2013-01-11 01:40:00,
2013-01-10 17:45:00,37.0,34.3,30.08,NNW,328,0.1,1.1,90,0.00,BKN,,0.13,0.0,WeatherDisplay:10.37,2013-01-11 01:45:00,
2013-01-10 17:50:00,36.8,34.1,30.08,NNW,328,0.4,0.0,90,0.00,BKN,,0.13,0.0,WeatherDisplay:10.37,2013-01-11 01:50:00,
2013-01-10 17:55:00,36.6,33.9,30.08,NNW,328,1.3,2.0,90,0.00,BKN,,0.13,0.0,WeatherDisplay:10.37,2013-01-11 01:55:00,
2013-01-10 18:00:00,36.4,34.0,30.08,NNW,328,0.0,1.1,91,0.00,BKN,,0.13,0.0,WeatherDisplay:10.37,2013-01-11 02:00:00,
2013-01-10 18:05:00,36.2,33.8,30.08,NNW,328,0.7,1.1,91,0.00,BKN,,0.13,0.0,WeatherDisplay:10.37,2013-01-11 02:05:00,
2013-01-10 18:10:00,36.0,33.9,30.08,NW,320,0.0,0.0,92,0.00,BKN,,0.13,0.0,WeatherDisplay:10.37,2013-01-11 02:10:00,
2013-01-10 18:15:00,36.0,33.9,30.08,NNW,342,2.4,4.6,92,0.00,BKN,,0.13,0.0,WeatherDisplay:10.37,2013-01-11 02:15:00,
2013-01-10 18:20:00,36.0,33.9,30.09,NNW,342,1.5,2.3,92,0.00,BKN,,0.13,0.0,WeatherDisplay:10.37,2013-01-11 02:20:00,
2013-01-10 18:25:00,36.0,33.9,30.08,NNW,342,1.9,3.5,92,0.00,BKN,,0.13,0.0,WeatherDisplay:10.37,2013-01-11 02:25:00,
2013-01-10 18:30:00,36.0,34.2,30.08,NNW,339,4.5,4.5,93,0.00,BKN,,0.13,0.0,WeatherDisplay:10.37,2013-01-11 02:30:00,
2013-01-10 18:36:00,36.5,34.7,30.08,North,359,4.7,12.0,93,0.00,BKN,,0.13,0.0,WeatherDisplay:10.37,2013-01-11 02:36:00,
2013-01-10 18:41:00,37.4,35.0,30.08,North,4,5.2,8.1,91,0.00,BKN,,0.13,0.0,WeatherDisplay:10.37,2013-01-11 02:41:00,
2013-01-10 18:46:00,38.6,34.5,30.08,NW,316,9.9,15.0,85,0.00,BKN,,0.13,0.0,WeatherDisplay:10.37,2013-01-11 02:46:00,
2013-01-10 18:52:00,39.9,34.5,30.08,NNW,335,11.9,18.4,81,0.00,BKN,,0.13,0.0,WeatherDisplay:10.37,2013-01-11 02:52:00,
2013-01-10 18:57:00,40.5,34.5,30.08,NNW,338,7.5,11.5,79,0.00,BKN,,0.13,0.0,WeatherDisplay:10.37,2013-01-11 02:57:00,
2013-01-10 19:02:00,41.0,34.7,30.08,North,350,3.5,6.9,78,0.00,BKN,,0.13,0.0,WeatherDisplay:10.37,2013-01-11 03:02:00,
2013-01-10 19:07:00,41.2,34.5,30.08,NNW,336,8.7,11.5,77,0.00,BKN,,0.13,0.0,WeatherDisplay:10.37,2013-01-11 03:07:00,
2013-01-10 19:12:00,41.4,34.4,30.08,NW,324,5.4,10.4,76,0.00,BKN,,0.13,0.0,WeatherDisplay:10.37,2013-01-11 03:12:00,
2013-01-10 19:17:00,41.6,34.3,30.08,North,351,4.4,5.8,75,0.00,BKN,,0.13,0.0,WeatherDisplay:10.37,2013-01-11 03:17:00,
2013-01-10 19:22:00,41.6,34.3,30.08,NNW,341,8.6,11.5,75,0.00,BKN,,0.13,0.0,WeatherDisplay:10.37,2013-01-11 03:22:00,
2013-01-10 19:27:00,41.7,34.0,30.08,NW,318,9.3,11.5,74,0.00,BKN,,0.13,0.0,WeatherDisplay:10.37,2013-01-11 03:27:00,
2013-01-10 19:32:00,41.8,34.5,30.08,NNW,347,5.0,8.1,75,0.00,BKN,,0.13,0.0,WeatherDisplay:10.37,2013-01-11 03:32:00,
2013-01-10 19:37:00,41.9,34.6,30.08,NNW,334,4.9,8.0,75,0.00,BKN,,0.13,0.0,WeatherDisplay:10.37,2013-01-11 03:37:00,
2013-01-10 19:42:00,41.9,34.2,30.08,WNW,285,5.6,10.4,74,0.00,BKN,,0.13,0.0,WeatherDisplay:10.37,2013-01-11 03:42:00,
2013-01-10 19:47:00,41.8,34.1,30.08,NW,326,5.7,9.0,74,0.00,BKN,,0.13,0.0,WeatherDisplay:10.37,2013-01-11 03:47:00,
2013-01-10 19:52:00,41.8,34.1,30.08,North,360,5.4,9.2,74,0.00,BKN,,0.13,0.0,WeatherDisplay:10.37,2013-01-11 03:52:00,
2013-01-10 19:57:00,41.7,34.0,30.08,North,354,3.2,10.4,74,0.00,BKN,,0.13,0.0,WeatherDisplay:10.37,2013-01-11 03:57:00,
2013-01-10 20:02:00,41.7,34.0,30.08,NNW,341,8.1,12.7,74,0.00,BKN,,0.13,0.0,WeatherDisplay:10.37,2013-01-11 04:02:00,
2013-01-10 20:07:00,41.7,34.0,30.08,NW,320,5.9,11.5,74,0.00,BKN,,0.13,0.0,WeatherDisplay:10.37,2013-01-11 04:07:00,
2013-01-10 20:12:00,41.8,33.8,30.08,North,352,7.8,12.7,73,0.00,BKN,,0.13,0.0,WeatherDisplay:10.37,2013-01-11 04:12:00,
2013-01-10 20:17:00,41.8,34.1,30.08,NNW,329,5.1,9.2,74,0.00,BKN,,0.13,0.0,WeatherDisplay:10.37,2013-01-11 04:17:00,
2013-01-10 20:22:00,41.8,34.5,30.08,North,359,1.8,3.5,75,0.00,BKN,,0.13,0.0,WeatherDisplay:10.37,2013-01-11 04:22:00,
2013-01-10 20:27:00,41.6,34.6,30.08,North,355,1.4,3.5,76,0.00,BKN,,0.13,0.0,WeatherDisplay:10.37,2013-01-11 04:27:00,
2013-01-10 20:32:00,41.3,34.3,30.08,North,358,3.9,4.6,76,0.00,BKN,,0.13,0.0,WeatherDisplay:10.37,2013-01-11 04:32:00,
2013-01-10 20:37:00,41.1,34.1,30.08,North,356,3.0,5.8,76,0.00,BKN,,0.13,0.0,WeatherDisplay:10.37,2013-01-11 04:37:00,
2013-01-10 20:42:00,40.9,34.2,30.09,NNE,22,2.1,3.5,77,0.00,BKN,,0.13,0.0,WeatherDisplay:10.37,2013-01-11 04:42:00,
2013-01-10 20:47:00,40.6,34.0,30.09,NNE,22,1.2,2.3,77,0.00,BKN,,0.13,0.0,WeatherDisplay:10.37,2013-01-11 04:47:00,
2013-01-10 20:52:00,40.4,34.1,30.09,NNE,22,0.0,0.0,78,0.00,BKN,,0.13,0.0,WeatherDisplay:10.37,2013-01-11 04:52:00,
2013-01-10 20:57:00,40.2,33.6,30.09,NNE,22,0.0,0.0,77,0.00,BKN,,0.13,0.0,WeatherDisplay:10.37,2013-01-11 04:57:00,
2013-01-10 21:00:00,40.0,33.4,30.09,NNE,22,0.0,0.0,77,0.00,BKN,,0.13,0.0,WeatherDisplay:10.37,2013-01-11 05:00:00,
2013-01-10 21:01:00,40.0,33.4,30.09,NNE,22,0.0,0.0,77,0.00,BKN,,0.13,0.0,WeatherDisplay:10.37,2013-01-11 05:01:00,
2013-01-10 21:02:00,39.9,33.3,30.09,NNE,22,0.0,0.0,77,0.00,BKN,,0.13,0.0,WeatherDisplay:10.37,2013-01-11 05:02:00,
2013-01-10 21:04:00,39.8,33.5,30.09,NNE,22,0.0,0.0,78,0.00,BKN,,0.13,0.0,WeatherDisplay:10.37,2013-01-11 05:04:00,
2013-01-10 21:09:00,39.6,33.3,30.09,NNE,22,0.0,0.0,78,0.00,BKN,,0.13,0.0,WeatherDisplay:10.37,2013-01-11 05:09:00,
2013-01-10 21:14:00,39.2,32.9,30.09,NNE,22,0.0,0.0,78,0.00,BKN,,0.13,0.0,WeatherDisplay:10.37,2013-01-11 05:14:00,
2013-01-10 21:19:00,38.8,32.8,30.09,NNE,22,0.0,0.0,79,0.00,BKN,,0.13,0.0,WeatherDisplay:10.37,2013-01-11 05:19:00,
2013-01-10 21:24:00,38.4,32.5,30.09,NNE,22,0.0,0.0,79,0.00,BKN,,0.13,0.0,WeatherDisplay:10.37,2013-01-11 05:24:00,
2013-01-10 21:29:00,38.1,32.5,30.09,NNE,22,0.0,0.0,80,0.00,BKN,,0.13,0.0,WeatherDisplay:10.37,2013-01-11 05:29:00,
2013-01-10 21:34:00,37.8,32.2,30.09,NNE,22,0.0,0.0,80,0.00,BKN,,0.13,0.0,WeatherDisplay:10.37,2013-01-11 05:34:00,
2013-01-10 21:39:00,37.3,31.7,30.09,NNE,22,0.0,0.0,80,0.00,BKN,,0.13,0.0,WeatherDisplay:10.37,2013-01-11 05:39:00,
2013-01-10 21:44:00,36.9,31.6,30.09,NNE,22,0.0,0.0,81,0.00,BKN,,0.13,0.0,WeatherDisplay:10.37,2013-01-11 05:44:00,
2013-01-10 21:49:00,36.5,31.5,30.10,NNE,22,0.0,0.0,82,0.00,BKN,,0.13,0.0,WeatherDisplay:10.37,2013-01-11 05:49:00,
2013-01-10 21:54:00,36.1,31.4,30.10,NNE,22,0.0,0.0,83,0.00,BKN,,0.13,0.0,WeatherDisplay:10.37,2013-01-11 05:54:00,
2013-01-10 21:59:00,35.8,31.1,30.10,NNE,22,0.0,0.0,83,0.00,BKN,,0.13,0.0,WeatherDisplay:10.37,2013-01-11 05:59:00,
2013-01-10 22:04:00,35.4,31.3,30.10,NNE,22,0.0,0.0,85,0.00,BKN,,0.13,0.0,WeatherDisplay:10.37,2013-01-11 06:04:00,
2013-01-10 22:10:00,35.1,30.8,30.10,NNE,22,0.3,1.1,84,0.00,BKN,,0.13,0.0,WeatherDisplay:10.37,2013-01-11 06:10:00,
2013-01-10 22:15:00,34.8,30.8,30.10,NNE,22,0.0,0.0,85,0.00,BKN,,0.13,0.0,WeatherDisplay:10.37,2013-01-11 06:15:00,
2013-01-10 22:20:00,34.6,30.6,30.10,NNE,22,0.0,0.0,85,0.00,BKN,,0.13,0.0,WeatherDisplay:10.37,2013-01-11 06:20:00,
2013-01-10 22:25:00,34.3,30.3,30.10,NNE,22,0.0,0.0,85,0.00,BKN,,0.13,0.0,WeatherDisplay:10.37,2013-01-11 06:25:00,
2013-01-10 22:30:00,34.0,30.3,30.10,NNE,22,0.0,0.0,86,0.00,BKN,,0.13,0.0,WeatherDisplay:10.37,2013-01-11 06:30:00,
2013-01-10 22:35:00,33.7,30.0,30.10,NNE,22,0.0,1.0,86,0.00,BKN,,0.13,0.0,WeatherDisplay:10.37,2013-01-11 06:35:00,
2013-01-10 22:40:00,33.5,29.8,30.10,NNE,22,0.0,0.0,86,0.00,BKN,,0.13,0.0,WeatherDisplay:10.37,2013-01-11 06:40:00,
2013-01-10 22:45:00,33.3,29.8,30.10,NNE,22,0.0,0.0,87,0.00,BKN,,0.13,0.0,WeatherDisplay:10.37,2013-01-11 06:45:00,
2013-01-10 22:50:00,33.0,29.8,30.10,NNE,22,0.1,2.3,88,0.00,BKN,,0.13,0.0,WeatherDisplay:10.37,2013-01-11 06:50:00,
2013-01-10 22:55:00,32.8,29.6,30.10,NNE,22,0.0,0.0,88,0.00,BKN,,0.13,0.0,WeatherDisplay:10.37,2013-01-11 06:55:00,
2013-01-10 23:00:00,32.6,29.4,30.10,NNE,22,0.0,0.0,88,0.00,BKN,,0.13,0.0,WeatherDisplay:10.37,2013-01-11 07:00:00,
2013-01-10 23:05:00,32.4,29.2,30.10,NNE,22,0.0,1.0,88,0.00,BKN,,0.13,0.0,WeatherDisplay:10.37,2013-01-11 07:05:00,
2013-01-10 23:10:00,32.2,29.0,30.10,NNE,22,0.0,0.0,88,0.00,BKN,,0.13,0.0,WeatherDisplay:10.37,2013-01-11 07:10:00,
2013-01-10 23:15:00,32.0,29.2,30.10,NNE,22,0.0,3.0,89,0.00,BKN,,0.13,0.0,WeatherDisplay:10.37,2013-01-11 07:15:00,
2013-01-10 23:20:00,31.9,29.0,30.11,NNE,22,0.0,3.0,89,0.00,BKN,,0.13,0.0,WeatherDisplay:10.37,2013-01-11 07:20:00,
2013-01-10 23:25:00,31.7,29.1,30.10,NNE,22,0.0,0.0,90,0.00,BKN,,0.13,0.0,WeatherDisplay:10.37,2013-01-11 07:25:00,
2013-01-10 23:30:00,31.6,29.0,30.11,NNE,22,0.0,0.0,90,0.00,BKN,,0.13,0.0,WeatherDisplay:10.37,2013-01-11 07:30:00,
2013-01-10 23:35:00,31.4,28.8,30.11,NNE,22,0.0,0.0,90,0.00,BKN,,0.13,0.0,WeatherDisplay:10.37,2013-01-11 07:35:00,
2013-01-10 23:40:00,31.3,28.7,30.11,NNE,22,0.0,0.0,90,0.00,BKN,,0.13,0.0,WeatherDisplay:10.37,2013-01-11 07:40:00,
2013-01-10 23:45:00,31.1,28.5,30.11,NNE,22,0.0,0.0,90,0.00,BKN,,0.13,0.0,WeatherDisplay:10.37,2013-01-11 07:45:00,
2013-01-10 23:50:00,31.0,28.1,30.11,NNE,22,0.0,0.0,89,0.00,BKN,,0.13,0.0,WeatherDisplay:10.37,2013-01-11 07:50:00,
2013-01-10 23:55:00,30.8,28.2,30.11,NNE,22,0.0,0.0,90,0.00,BKN,,0.13,0.0,WeatherDisplay:10.37,2013-01-11 07:55:00,